ROSKILDE/TUNE current weather conditions

sailwx.info

Wind from 150 at 8 knots

Air temperature 4.0° C
Visibility: greater than 5.4 NM
Dewpoint 2.0° C

Last reported at 2019-Dec-13 00:20 UTC.
Time now 2019-Dec-13 02:29 UTC

Location: N 55°35' E 012°08'.
View on Google Maps.

See reports from other nearby stations

  
Tides and Currents Weather Stations Pressure Air Temp Water Temp Dewpoint Dewpoint Depression Visibility Wind Speed Wind Dir Waves Ship Positions
date/time (UTC)wind fromknots sea level pressurealtimeterstation pressurevisibilityair tempwater tempwave heightnotes
2019-Dec-13 01:50 150 12 5.4 4.0
2019-Dec-13 01:20 150 12 5.4 4.0
2019-Dec-13 00:50 150 9 5.4 4.0
2019-Dec-13 00:20 150 8 5.4 4.0
2019-Dec-12 23:50 150 6 3.8 3.0
2019-Dec-12 23:20 160 8 5.4 3.0
2019-Dec-12 22:50 160 7 5.4 4.0
2019-Dec-12 22:20 170 8 5.4 4.0
2019-Dec-12 21:50 170 8 5.4 4.0
2019-Dec-12 21:20 180 7 4.3 4.0
2019-Dec-12 20:50 180 9 4.3 4.0
2019-Dec-12 20:20 180 7 4.9 4.0
2019-Dec-12 19:50 190 8 5.4 4.0
2019-Dec-12 19:20 190 7 4.9 5.0
2019-Dec-12 18:50 190 7 3.8 4.0
2019-Dec-12 18:20 200 7 3.2 4.0
2019-Dec-12 17:50 190 7 2.7 4.0
2019-Dec-12 17:20 190 7 2.7 4.0
2019-Dec-12 16:50 190 7 3.8 4.0
2019-Dec-12 16:20 190 7 3.2 4.0
2019-Dec-12 15:50 180 7 2.7 4.0 Light rain.
2019-Dec-12 15:20 180 6 2.3 4.0 Light rain.
2019-Dec-12 14:50 190 7 3.2 4.0 Light rain.
2019-Dec-12 14:20 180 6 2.7 4.0 Light rain.
2019-Dec-12 13:50 190 6 3.8 4.0 Light rain.
2019-Dec-12 13:20 200 6 3.2 5.0 Light rain.
2019-Dec-12 12:50 200 6 4.9 5.0
2019-Dec-12 12:20 200 8 4.9 5.0
2019-Dec-12 11:50 220 8 4.3 5.0
2019-Dec-12 11:20 230 6 3.8 6.0
2019-Dec-12 10:50 220 6 3.8 5.0 Light drizzle.
2019-Dec-12 10:20 220 6 3.8 5.0
2019-Dec-12 09:50 210 5 3.2 5.0
2019-Dec-12 09:20 210 5 2.7 5.0 Light rain.
2019-Dec-12 08:50 210 4 2.7 4.0
2019-Dec-12 08:20 190 4 2.5 4.0 Mist.
2019-Dec-12 07:50 200 5 1.9 4.0 Light drizzle. Mist.
2019-Dec-12 07:20 210 4 2.1 4.0 Mist.
2019-Dec-12 06:50 200 5 2.4 4.0 Mist.
2019-Dec-12 06:20 200 4 2.7 4.0
2019-Dec-12 05:50 200 5 3.2 4.0
2019-Dec-12 05:20 170 4 2.7 4.0
2019-Dec-12 04:50 170 2 3.2 4.0
2019-Dec-12 04:20 180 4 2.7 4.0
2019-Dec-12 03:50 180 4 2.7 4.0 Light drizzle.
2019-Dec-12 03:20 170 4 2.7 4.0 Drizzle. Mist.
2019-Dec-12 02:50 170 2 2.7 4.0 Drizzle.
2019-Dec-12 02:20 190 2 2.7 4.0 Light rain.
2019-Dec-12 01:50 170 2 2.7 4.0
2019-Dec-12 01:20 180 1 2.7 4.0 Drizzle.
2019-Dec-12 00:50 180 2 2.2 4.0 Light rain. Mist.
2019-Dec-12 00:20 170 5 1.6 4.0 Light rain. Mist.
2019-Dec-11 23:50 180 5 1.9 4.0 Light drizzle.
2019-Dec-11 23:20 170 5 1.3 4.0 Mist.
2019-Dec-11 22:50 170 5 1.3 5.0 Mist.
2019-Dec-11 22:20 170 5 1.5 5.0 Light drizzle. Mist.
2019-Dec-11 21:50 170 6 1.2 4.0 Mist.
2019-Dec-11 21:20 180 6 0.7 5.0 Mist.
2019-Dec-11 20:50 190 5 0.5 5.0 Mist.
2019-Dec-11 20:20 200 5 0.3 5.0 Fog.
2019-Dec-11 19:50 190 5 0.3 5.0 Fog.
2019-Dec-11 19:20 190 6 0.5 5.0 Mist.
2019-Dec-11 18:50 190 5 0.6 5.0 Mist.
2019-Dec-11 18:20 190 6 0.8 5.0 Mist.
2019-Dec-11 17:50 190 4 0.6 5.0 Mist.
2019-Dec-11 17:20 190 6 0.8 5.0 Mist.
2019-Dec-11 16:50 190 6 1.1 5.0 Mist.
2019-Dec-11 16:20 200 6 1.2 5.0 Mist.
2019-Dec-11 15:50 190 6 1.3 5.0 Mist.
2019-Dec-11 15:20 190 6 1.4 5.0 Mist.
2019-Dec-11 14:50 200 6 1.3 5.0 Mist.
2019-Dec-11 14:20 210 6 1.6 5.0 Mist.
2019-Dec-11 13:50 200 6 2.3 5.0 Mist.
2019-Dec-11 13:20 210 7 2.7 5.0
2019-Dec-11 12:50 210 8 3.8 5.0
2019-Dec-11 12:20 210 8 4.3 5.0
2019-Dec-11 11:50 210 8 4.9 5.0
2019-Dec-11 11:20 210 9 5.4 5.0
2019-Dec-11 10:50 210 8 5.4 5.0 Light rain.
2019-Dec-11 10:20 220 11 5.4 5.0 Light rain.
2019-Dec-11 09:50 220 12 4.9 5.0 Light rain.
2019-Dec-11 09:20 220 12 5.4 5.0
2019-Dec-11 08:50 220 13 5.4 5.0 Light rain.
2019-Dec-11 08:20 210 13 5.4 4.0 Light rain.
2019-Dec-11 07:50 210 13 5.4 4.0 Light rain.
2019-Dec-11 07:20 210 13 5.4 4.0 Light rain.
2019-Dec-11 06:50 210 14 3.8 4.0 Light rain.
2019-Dec-11 06:20 210 13 3.8 4.0 Light rain.
2019-Dec-11 05:50 210 15 5.4 4.0
2019-Dec-11 05:20 200 14 3.2 4.0
2019-Dec-11 04:50 200 15 5.4 4.0
2019-Dec-11 04:20 200 17 gusting 27 4.9 3.0
2019-Dec-11 03:50 200 18 3.8 3.0
2019-Dec-11 03:20 200 18 5.4 3.0 Light rain.
2019-Dec-11 02:50 190 19 5.4 4.0
2019-Dec-11 02:20 200 17 5.4 4.0